www.pogodaiklimat.ru

Погода и климат >> Архив погоды >> Украина >> Троицкое


ПОГОДА в Троицком

  • Прогноз погоды в Троицком
  • Монитор погоды в Троицком

АРХИВ ПОГОДЫ в Троицком

Время (UTC), дата Ветер
(напр.,м/с)
 
Видим.   Явления Облачность Т
(С)
Тd
(С)
f
(%)
Тe
(С)
Тes
(С)
Комфортность P
(гПа)
Po
(гПа)
Тmin
(С)
Tmax
(С)
R
(мм)
R24
(мм)
S
(см)
18 11.09 ЮВ 1 20 км ясно +19.7 +8.5 48 +22 +22 комфорт 1029.1 1010.8 +28.8
21 11.09 штиль 0 20 км ясно +15.4 +8.2 62 +15 +15 1029.5 1010.9
00 12.09 штиль 0 20 км 3/3 1000 м
[Cu hum]
+12.7 +8.0 73 +12 +12 1029.8 1011.0
03 12.09 штиль 0 20 км 1/1 600 м
[Cu med, cong]
+11.8 +7.7 76 +11 +11 1030.3 1011.4
06 12.09 ЮВ 1 20 км ясно +20.3 +8.6 47 +23 +27 комфорт 1030.0 1011.7 +8.8
09 12.09 В 4 20 км 3/3 1000 м
[Cu med, cong]
+25.5 +9.1 35 +26 +31 жарко 1028.8 1010.8
12 12.09 СВ 3 20 км 3/3 1000 м
[Cu med, cong]
+26.3 +8.0 31 +26 +30 жарко 1027.3 1009.4
15 12.09 В 2 20 км ясно +24.6 +7.5 34 +25 +25 комфорт 1026.5 1008.5
18 12.09 штиль 0 20 км ясно +18.2 +6.7 47 +18 +18 1027.3 1008.9 +28.1
21 12.09 штиль 0 20 км ясно +12.6 +5.8 63 +12 +12 1027.3 1008.6
00 13.09 штиль 0 20 км ясно +9.3 +5.3 76 +9 +9 1027.2 1008.2
03 13.09 штиль 0 20 км ясно +7.0 +3.7 79 +6 +6 1027.4 1008.3
06 13.09 штиль 0 20 км 3/0
[Ci fib]
+17.8 +6.7 48 +18 +23 1026.7 1008.3 +6.5
09 13.09 Ю 2 20 км 3/0
[Ci fib]
+26.0 +7.3 30 +26 +35 жарко 1025.2 1007.3
12 13.09 СЗ 1 20 км 3/3 600 м
[Cu hum]
+26.3 +8.3 32 +26 +31 жарко 1023.2 1005.4
15 13.09 штиль 0 20 км 1/0
[Ac trans]
+25.3 +7.3 32 +25 +26 комфорт 1021.8 1003.9
18 13.09 штиль 0 20 км ясно +15.0 +5.8 54 +15 +15 1022.6 1004.1 +27.7
21 13.09 штиль 0 20 км ясно +13.2 +4.5 56 +13 +13 1021.8 1003.2
00 14.09 Ю 1 20 км 4/0
[Ac As]
+12.5 +4.4 58 +13 +13 1021.0 1002.4
03 14.09 Ю 2 20 км 8/4 600 м
[Sc Ac As]
+12.2 +4.8 61 +11 +11 1019.9 1001.3
06 14.09 Ю 3 20 км 8/6 600 м
[Sc Ac trans]
+17.2 +5.4 46 +17 +18 1019.2 1000.9 +11.0
09 14.09 З 4 20 км 8/0
[Ac trans Ci fib]
+26.2 +8.5 33 +26 +30 жарко 1017.6 999.9
12 14.09 З 6 20 км 8/4 600 м
[Cb cap Ac trans]
+26.4 +8.3 32 +26 +27 жарко 1016.4 998.7
15 14.09 СЗ 6 20 км 10/10 600 м
[Cb cap]
+21.6 +10.5 49 +23 +23 комфорт 1016.6 998.6
18 14.09 С 3 20 км 10/10 600 м
[Cb cap]
+15.6 +12.7 83 +15 +15 1019.3 1000.9 +28.6
21 14.09 СЗ 2 20 км {ливн. осадки} 8/5 600 м
[Cb cap Ac trans]
+12.6 +10.7 88 +12 +12 1020.7 1002.1
00 15.09 СЗ 2 20 км {ливн. осадки} 3/1 600 м
[Sc Ac trans]
+9.2 +7.5 89 +7 +7 1021.7 1002.8
03 15.09 СЗ 2 20 км 3/0
[Ac trans]
+8.4 +6.0 85 +7 +7 1022.0 1003.1
06 15.09 СЗ 2 20 км 3/0
[Ac trans Ci fib]
+12.5 +6.9 69 +12 +15 1022.7 1004.0 +6.6 0.0
09 15.09 СЗ 5 20 км 3/3 1000 м
[Cu med, cong]
+18.1 +6.6 47 +18 +21 1021.7 1003.4
12 15.09 СЗ 5 20 км 6/5 1000 м
[Cu med, cong Ci fib]
+19.3 +5.1 39 +20 +21 1020.1 1001.9
15 15.09 З 3 20 км 3/0
[Ci fib]
+19.1 +3.7 36 +20 +20 1019.0 1000.8
18 15.09 В 1 20 км 3/0
[Ci fib]
+13.8 +3.6 50 +14 +14 1019.2 1000.7 +21.4
21 15.09 ЮВ 1 20 км 1/0
[Ci fib]
+12.7 +2.7 51 +13 +13 1018.5 999.9
00 16.09 В 2 20 км 1/0
[Ci fib]
+11.1 +3.1 58 +10 +10 1016.9 998.2
03 16.09 Ю 3 20 км 1/0
[Ci fib]
+9.4 +2.9 64 +7 +7 1015.1 996.4
06 16.09 ЮЗ 4 20 км 3/0
[Ci fib]
+17.1 +4.5 43 +17 +19 1012.8 994.6 +5.8
12 16.09 З 7 20 км 1/0
[Ci fib]
+25.3 +3.2 24 +24 +26 комфорт 1007.7 990.1
18 16.09 СВ 2 20 км 9/9 600 м
[Sc]
+20.9 +4.6 34 +22 +22 комфорт 1007.3 989.4 +25.3
00 17.09 штиль 0 20 км 10/10 600 м
[Sc]
+16.2 +8.8 62 +16 +16 1006.5 988.4
06 17.09 З 4 20 км 8/0 600 м
[Ac trans Ci fib]
+18.3 +8.5 53 +18 +20 1005.9 987.9 +13.6
12 17.09 З 6 20 км 10/0
[Ac As]
+17.6 +4.7 42 +17 +18 1006.4 988.3
18 17.09 ЮЗ 1 20 км ясно +13.6 +3.4 50 +14 +14 1006.6 988.3 +21.5
00 18.09 ЮЗ 1 20 км 3/0
[Ac trans]
+9.8 +6.6 80 +9 +9 1006.6 988.0
06 18.09 Ю 5 20 км 9/9 600 м
[Cb cap]
+10.9 +8.0 82 +8 +8 1004.1 985.7 +5.6
12 18.09 ЮЗ 5 20 км {ливн. осадки} 9/9 600 м
[Cb cap]
+14.7 +8.4 66 +13 +14 1001.8 983.6

 

Местоположение метеостанции Троицкое (Луганская область, Украина): широта 49.92 долгота 38.25 высота над уровнем моря 154 м.

В архиве по умолчанию представлена погода в Троицком за последнюю неделю. Архивные данные за месяц целиком и за предыдущие месяцы, начиная с января 2011 года, Вы можете получить, выбрав интересующий диапазон дат из раскрывающегося списка и нажав кнопку "Ввод!".


*Определитесь, кто Вы:
робот инопланетянин человек

Внимание! Время в таблицах - всемирное. Для получения местного времени необходимо прибавить поправку, которая равна 2 ч.

Смотрите также архив погоды в соседних городах и на ближайших метеорологических станциях:

Погода в Новопскове (Луганская область, Украина) (20 км)
Погода в Валуйках (Белгородская область, Россия) (35 км)
Погода в Купянске (Харьковская область, Украина) (51 км)
Погода в Сватово (Луганская область, Украина) (56 км)
Погода в Великом Бурлуке (Харьковская область, Украина) (64 км)
Погода в Новом Осколе (Белгородская область, Россия) (96 км)
Погода в Изюме (Харьковская область, Украина) (107 км)
Погода в Беловодске (Луганская область, Украина) (124 км)
Погода в Комсомольском (Донецкая область, Украина) (129 км)
Погода в Белгороде (Белгородская область, Россия) (143 км)

Пояснения к столбцам:

Ветер - указаны скорость ветра в м/с - средняя за 10 мин, порывы в срок и между сроками (в фигурных скобках) и направление, откуда дует ветер: С - северный, СВ - северо-восточный, В - восточный, ЮВ - юго-восточный, Ю - южный, ЮЗ - юго-западный, З - западный, СЗ - северо-западный.
Видимость - горизонтальная дальность видимости в метрах или километрах. При видимости от 1 до 10 км при отсутствии осадков обычно наблюдается дымка, при ухудшении видимости до 1 км и менее - туман. В сухую погоду видимость может ухудшаться дымом, пылью или мглою.
Явления - указаны атмосферные явления, наблюдавшиеся в срок или в последний час перед сроком; фигурными скобками обозначены явления, наблюдавшиеся между сроками (за 1-3 часа до срока); квадратными скобками обозначены град или гололедные отложения с указанием их диаметра в мм.
Облачность - указаны через наклонную черту общая и нижняя облачность в баллах и высота нижней границы облаков в метрах; квадратными скобками обозначены формы облаков: Ci - перистые, Cs - перисто-слоистые, Cc - перисто-кучевые, Ac - высококучевые, As - высокослоистые, Sc - слоисто-кучевые, Ns - слоисто-дождевые, Cu - кучевые, Cb - кучево-дождевые. Подробнее классификацию облаков см. в Атласе облаков (PDF).
T - Температура воздуха - температура, измеренная на высоте 2 м над землей.
Td - Температура точки росы - температура, при понижении до которой содержащийся в воздухе водяной пар достигнет насыщения.
f - Относительная влажность воздуха - влажноcть воздуха, измеренная на высоте 2 м над землей.
Te - Эффективная температура - температура, которую ощущает одетый по сезону человек в тени. Характеристика душности погоды. При расчете учитывается влияние влажности воздуха и скорости ветра на теплоощущения человека.
Tes - Эффективная температура на солнце - температура, которую ощущает человек, с поправкой на солнечный нагрев. Характеристика знойности погоды. Зависит от высоты солнца над горизонтом, облачности и скорости ветра. Ночью, в пасмурную погоду, а также при ветре 12 м/с и более поправка равна нулю.
P - Атмосферное давление - приведенное к уровню моря атмосферное давление.
Po - Атмосферное давление - измеренное на уровне метеостанции атмосферное давление.
Tmin - Минимальная температура - минимум температуры воздуха на высоте 2 м над землей.
Tmax - Максимальная температура - максимум температуры воздуха на высоте 2 м над землей.
R - Количество осадков - Количество выпавших осадков за период времени, мм. При наведении курсора мыши на число - период времени, за который выпало указанное количество осадков.
R24 - Количество осадков - Количество выпавших осадков за 24 часа, мм.
S - Снежный покров - Высота снежного покрова, см. При наведении курсора мыши на число - состояние снежного покрова и степень покрытия местности в баллах.